Home > Weather > Hampton > Past weeks

Flag for USA Past Weather in Hampton, Virginia, USA — Yesterday and Last 2 Weeks

Now
79 °F

Passing clouds.


Feels Like: 82 °F
Forecast: 80 / 90 °F
Wind: 3 mph from Northwest

Location: Langley Air Force Base

Current Time: Jul 27, 2016 at 3:48:30 AM

Latest Report: Jul 27, 2016 at 2:58 AM


Visibility: 10 mi

Pressure: 29.96 "Hg

Humidity: 88%

Dew Point: 75 °F

Location of HamptonLocation

Past Weather in Hampton — Graph

°F

Hampton Temperature Yesterday

Maximum temperature yesterday: 92 °F (at 12:58 PM)
Minimum temperature yesterday: 80 °F (at 5:58 AM)
Average temperature yesterday: 85 °F

High & Low Weather Summary for the Past Weeks

 TemperatureHumidityPressure
High96 °F (Jul 24, 2:58 PM)99% (Jul 18, 6:58 AM)30.21 "Hg (Jul 18, 6:58 AM)
Low70 °F (Jul 20, 1:58 AM)48% (Jul 25, 3:58 PM)29.91 "Hg (Jul 14, 4:58 PM)
Average82 °F76%30.06 "Hg
* Reported Jul 12 2:58 AM — Jul 27 2:58 AM, Hampton, Weather by CustomWeather, © 2016

Note: Actual official high and low records may vary slightly from our data, if they occured in-between our weather recording intervals... More about our weather records

Advertising

Hampton Weather History for the Previous 24 Hours

Scroll right to see more
 ConditionsComfort  
Time TempWeatherWind HumidityBarometerVisibility
2:58 AM
Wed, Jul 27
79 °FPassing clouds.3 mph88%29.96 "Hg10 mi
1:58 AM80 °FPassing clouds.7 mph83%29.95 "Hg10 mi
12:58 AM79 °FPassing clouds.3 mph86%29.96 "Hg10 mi
11:58 PM
Tue, Jul 26
80 °FClear.2 mph82%29.97 "Hg10 mi
10:58 PM81 °FPassing clouds.2 mph79%29.97 "Hg10 mi
9:58 PM81 °FClear.5 mph79%29.96 "Hg10 mi
9:03 PM81 °FSunny.3 mph84%29.94 "Hg9 mi
8:58 PM81 °FSunny.2 mph81%29.95 "Hg10 mi
7:58 PM82 °FSunny.5 mph77%29.94 "Hg10 mi
6:58 PM85 °FScattered clouds.10 mph78%29.95 "Hg10 mi
5:58 PM86 °FSunny.7 mph74%29.93 "Hg10 mi
4:58 PM89 °FSunny.8 mph72%29.93 "Hg10 mi
4:02 PM90 °FThundershowers. Passing clouds.14 mph71%29.92 "Hg10 mi
3:58 PM90 °FThundershowers. Scattered clouds.12 mph69%29.94 "Hg10 mi
2:58 PM88 °FPassing clouds.8 mph68%29.95 "Hg10 mi
1:58 PM90 °FScattered clouds.12 mph69%29.96 "Hg10 mi
12:58 PM92 °FScattered clouds.5 mph61%29.97 "Hg9 mi
11:58 AM91 °FPassing clouds.5 mph64%29.98 "Hg9 mi
10:58 AM89 °FScattered clouds.8 mph67%29.97 "Hg9 mi
9:58 AM87 °FPassing clouds.7 mph74%29.97 "Hg9 mi
8:58 AM85 °FScattered clouds.9 mph77%29.97 "Hg10 mi
7:58 AM82 °FPassing clouds.12 mph82%29.97 "Hg10 mi
6:58 AM80 °FClear.10 mph85%29.96 "Hg10 mi
5:58 AM80 °FClear.14 mph85%29.95 "Hg10 mi
4:58 AM81 °FClear.13 mph83%29.95 "Hg10 mi
3:58 AM82 °FClear.13 mph83%29.95 "Hg10 mi
Weather by CustomWeather, © 2016

See weather overviewHow to use our weather pages